Cumberland, WI

1:21 PM CDT on March 24, 2017 (GMT -0500)
Cumberland Municipal

Weather History for KUBE - October, 2013

Change the Weather History Date:

Friday, October 11, 2013

  Actual Average (KRPD) Record (KRPD)
Temperature  
Mean Temperature 62 °F -  
Max Temperature 73 °F 57 °F 79 °F (2015)
Min Temperature 50 °F 37 °F 24 °F (2000)
Degree Days  
Heating Degree Days 4    
Growing Degree Days 12 (Base 50)    
Moisture  
Dew Point 49 °F    
Average Humidity 65    
Maximum Humidity 88    
Minimum Humidity 44    
Precipitation  
Precipitation 0.00 in - - ()
Sea Level Pressure  
Sea Level Pressure 29.85 in    
Wind  
Wind Speed 10 mph (SE)    
Max Wind Speed 23 mph    
Max Gust Speed 34 mph    
Visibility 10 miles    
Events      
Averages and records for this station are not official NWS values.
T = Trace of Precipitation, MM = Missing Value Source: NWS Daily Summary

Daily Weather History Graph

Daily Weather History Graph

Search for Another Location

Airport or City:

Trip Planner

Search our weather history database for the weather conditions in past years. The results will help you decide how hot, cold, wet, or windy it might be!

Date:

Astronomy

Oct. 11, 2013 Rise Set
Actual Time 7:19 AM CDT 6:29 PM CDT
Civil Twilight 6:49 AM CDT 6:58 PM CDT
Nautical Twilight 6:15 AM CDT 7:32 PM CDT
Astronomical Twilight 5:40 AM CDT 8:07 PM CDT
Moon 2:10 PM CDT (10/11) No Moon Set
Length of Visible Light 12h 09m
Length of Day
11h 09m
Waxing Crescent, 47% of the Moon is Illuminated
Oct 11
Waxing Crescent
Oct 11
First Quarter
Oct 18
Full
Oct 26
Last Quarter
Nov 3
New

Hourly Weather History & Observations

Time (CDT) Temp. Dew Point Humidity Pressure Visibility Wind Dir Wind Speed Gust Speed Precip Events Conditions
12:15 AM 53.6 °F 44.6 °F 72% 29.96 in 10.0 mi SE 4.6 mph - N/A   Clear
12:35 AM 53.6 °F 44.6 °F 72% 29.95 in 10.0 mi ESE 4.6 mph - N/A   Clear
12:55 AM 53.6 °F 44.6 °F 72% 29.96 in 10.0 mi SE 4.6 mph - N/A   Clear
1:15 AM 51.8 °F 44.6 °F 76% 29.96 in 10.0 mi SE 5.8 mph - N/A   Clear
1:55 AM 51.8 °F 44.6 °F 76% 29.96 in 10.0 mi SE 4.6 mph - N/A   Clear
2:15 AM 51.8 °F 44.6 °F 76% 29.96 in 10.0 mi SE 4.6 mph - N/A   Clear
2:35 AM 51.8 °F 44.6 °F 76% 29.96 in 10.0 mi ESE 4.6 mph - N/A   Clear
2:55 AM 51.8 °F 44.6 °F 76% 29.96 in 10.0 mi ESE 5.8 mph - N/A   Clear
3:15 AM 51.8 °F 44.6 °F 76% 29.96 in 10.0 mi SE 5.8 mph - N/A   Clear
3:35 AM 51.8 °F 44.6 °F 76% 29.96 in 10.0 mi SE 5.8 mph - N/A   Clear
3:55 AM 51.8 °F 44.6 °F 76% 29.96 in 10.0 mi ESE 6.9 mph - N/A   Clear
4:15 AM 51.8 °F 44.6 °F 76% 29.96 in 10.0 mi ESE 6.9 mph - N/A   Clear
4:35 AM 51.8 °F 44.6 °F 76% 29.96 in 10.0 mi ESE 6.9 mph - N/A   Clear
4:55 AM 51.8 °F 46.4 °F 82% 29.96 in 10.0 mi ESE 6.9 mph - N/A   Clear
5:15 AM 51.8 °F 46.4 °F 82% 29.95 in 10.0 mi SE 5.8 mph - N/A   Clear
5:35 AM 51.8 °F 46.4 °F 82% 29.96 in 10.0 mi SE 5.8 mph - N/A   Clear
5:55 AM 51.8 °F 46.4 °F 82% 29.96 in 10.0 mi SE 6.9 mph - N/A   Clear
6:15 AM 50.0 °F 46.4 °F 87% 29.96 in 10.0 mi SE 5.8 mph - N/A   Clear
6:35 AM 50.0 °F 46.4 °F 87% 29.95 in 10.0 mi SE 4.6 mph - N/A   Clear
6:55 AM 50.0 °F 46.4 °F 87% 29.95 in 10.0 mi SE 6.9 mph - N/A   Clear
7:15 AM 50.0 °F 46.4 °F 87% 29.95 in 10.0 mi SE 6.9 mph - N/A   Clear
7:35 AM 50.0 °F 46.4 °F 87% 29.95 in 10.0 mi SE 6.9 mph - N/A   Clear
7:55 AM 50.0 °F 46.4 °F 87% 29.94 in 10.0 mi SE 5.8 mph - N/A   Clear
8:15 AM 50.0 °F 46.4 °F 87% 29.95 in 10.0 mi SE 5.8 mph - N/A   Clear
8:35 AM 51.8 °F 48.2 °F 88% 29.94 in 10.0 mi ESE 6.9 mph - N/A   Clear
8:55 AM 53.6 °F 48.2 °F 82% 29.94 in 10.0 mi SE 8.1 mph - N/A   Clear
9:15 AM 53.6 °F 50.0 °F 88% 29.94 in 10.0 mi SE 11.5 mph - N/A   Clear
9:35 AM 55.4 °F 50.0 °F 82% 29.94 in 10.0 mi SE 11.5 mph - N/A   Clear
9:55 AM 59.0 °F 50.0 °F 72% 29.93 in 10.0 mi SE 9.2 mph 18.4 mph N/A   Clear
10:15 AM 60.8 °F 50.0 °F 68% 29.92 in 10.0 mi SE 10.4 mph 17.3 mph N/A   Clear
10:35 AM 62.6 °F 51.8 °F 68% 29.91 in 10.0 mi ESE 9.2 mph - N/A   Clear
10:55 AM 62.6 °F 51.8 °F 68% 29.89 in 10.0 mi SE 9.2 mph - N/A   Clear
11:15 AM 64.4 °F 51.8 °F 64% 29.88 in 10.0 mi SE 10.4 mph 16.1 mph N/A   Clear
11:35 AM 66.2 °F 51.8 °F 60% 29.88 in 10.0 mi SE 11.5 mph 18.4 mph N/A   Clear
11:55 AM 68.0 °F 51.8 °F 56% 29.88 in 10.0 mi SE 12.7 mph 24.2 mph N/A   Clear
12:15 PM 69.8 °F 51.8 °F 53% 29.86 in 10.0 mi SSE 20.7 mph 25.3 mph N/A   Clear
12:35 PM 69.8 °F 51.8 °F 53% 29.85 in 10.0 mi SSE 18.4 mph 26.5 mph N/A   Scattered Clouds
12:55 PM 69.8 °F 51.8 °F 53% 29.84 in 10.0 mi SE 16.1 mph 25.3 mph N/A   Scattered Clouds
1:15 PM 69.8 °F 50.0 °F 49% 29.82 in 10.0 mi SE 18.4 mph 29.9 mph N/A   Scattered Clouds
1:35 PM 71.6 °F 50.0 °F 46% 29.79 in 10.0 mi SE 17.3 mph 32.2 mph N/A   Scattered Clouds
1:55 PM 71.6 °F 50.0 °F 46% 29.79 in 10.0 mi SE 23.0 mph 27.6 mph N/A   Clear
2:15 PM 71.6 °F 50.0 °F 46% 29.77 in 10.0 mi SE 20.7 mph 31.1 mph N/A   Clear
2:35 PM 71.6 °F 50.0 °F 46% 29.78 in 10.0 mi SE 21.9 mph 27.6 mph N/A   Scattered Clouds
2:55 PM 69.8 °F 50.0 °F 49% 29.76 in 10.0 mi SE 23.0 mph 34.5 mph N/A   Scattered Clouds
3:15 PM 73.4 °F 50.0 °F 44% 29.75 in 10.0 mi SE 19.6 mph 29.9 mph N/A   Clear
3:35 PM 69.8 °F 50.0 °F 49% 29.74 in 10.0 mi SE 19.6 mph 27.6 mph N/A   Clear
3:55 PM 69.8 °F 50.0 °F 49% 29.74 in 10.0 mi SSE 18.4 mph 25.3 mph N/A   Clear
4:15 PM 69.8 °F 50.0 °F 49% 29.74 in 10.0 mi SSE 19.6 mph 26.5 mph N/A   Scattered Clouds
4:35 PM 71.6 °F 50.0 °F 46% 29.75 in 10.0 mi SSE 15.0 mph 21.9 mph N/A   Clear
4:55 PM 69.8 °F 50.0 °F 49% 29.75 in 10.0 mi SSE 16.1 mph 24.2 mph N/A   Clear
5:15 PM 69.8 °F 48.2 °F 46% 29.75 in 10.0 mi SSE 20.7 mph 27.6 mph N/A   Scattered Clouds
5:35 PM 69.8 °F 50.0 °F 49% 29.75 in 10.0 mi SSE 16.1 mph 23.0 mph N/A   Scattered Clouds
5:55 PM 69.8 °F 50.0 °F 49% 29.75 in 10.0 mi SE 15.0 mph 28.8 mph N/A   Mostly Cloudy
6:15 PM 69.8 °F 50.0 °F 49% 29.75 in 10.0 mi SSE 15.0 mph 26.5 mph N/A   Overcast
6:35 PM 68.0 °F 50.0 °F 52% 29.74 in 10.0 mi SE 15.0 mph 25.3 mph N/A   Overcast
6:55 PM 68.0 °F 50.0 °F 52% 29.74 in 10.0 mi SSE 18.4 mph 24.2 mph N/A   Overcast
7:15 PM 68.0 °F 50.0 °F 52% 29.75 in 10.0 mi SSE 19.6 mph 26.5 mph N/A   Overcast
7:35 PM 68.0 °F 50.0 °F 52% 29.74 in 10.0 mi SSE 12.7 mph 24.2 mph N/A   Overcast
7:55 PM 68.0 °F 51.8 °F 56% 29.74 in 10.0 mi SSE 12.7 mph 24.2 mph N/A   Overcast
8:15 PM 68.0 °F 51.8 °F 56% 29.74 in 10.0 mi SSE 13.8 mph 20.7 mph N/A   Overcast
8:35 PM 66.2 °F 51.8 °F 60% 29.74 in 10.0 mi SSE 13.8 mph 19.6 mph N/A   Mostly Cloudy
8:55 PM 66.2 °F 50.0 °F 56% 29.74 in 10.0 mi SSE 15.0 mph 20.7 mph N/A   Mostly Cloudy
9:15 PM 66.2 °F 50.0 °F 56% 29.73 in 10.0 mi SSE 15.0 mph 23.0 mph N/A   Overcast
9:35 PM 66.2 °F 50.0 °F 56% 29.73 in 10.0 mi SSE 17.3 mph 24.2 mph N/A   Overcast
9:55 PM 66.2 °F 50.0 °F 56% 29.72 in 10.0 mi SSE 12.7 mph 24.2 mph N/A   Mostly Cloudy
10:15 PM 66.2 °F 50.0 °F 56% 29.73 in 10.0 mi SSE 16.1 mph 25.3 mph N/A   Mostly Cloudy
10:35 PM 64.4 °F 50.0 °F 59% 29.72 in 10.0 mi SSE 13.8 mph 21.9 mph N/A   Mostly Cloudy
10:55 PM 64.4 °F 50.0 °F 59% 29.72 in 10.0 mi SSE 13.8 mph 23.0 mph N/A   Scattered Clouds
11:15 PM 64.4 °F 50.0 °F 59% 29.72 in 10.0 mi SSE 18.4 mph 24.2 mph N/A   Scattered Clouds
11:35 PM 64.4 °F 50.0 °F 59% 29.72 in 10.0 mi South 13.8 mph 21.9 mph N/A   Scattered Clouds
11:55 PM 64.4 °F 50.0 °F 59% 29.72 in 10.0 mi SSE 16.1 mph 24.2 mph N/A   Scattered Clouds